Regional Weather Roundup
Issued by NWS

Home | Current Version | Previous Version | Graphics & Text | Print | Product List | Glossary On
Versions: 1 2 3 4 5 6 7 8 9 10 11 12 13 14 15 16 17 18 19 20 21 22 23 24 25 26 27 28 29 30 31 32 33 34 35 36 37 38 39 40 41 42 43 44 45 46 47 48 49 50
000
ASUS43 KOAX 262002
RWRNE

WEATHER ROUNDUP FOR NEBRASKA
NATIONAL WEATHER SERVICE OMAHA NE
200 PM CST FRI DEC 26 2014

NOTES: SATELLITE DATA IS BEING USED TO AUGMENT CLOUD COVER ABOVE
       12000 FEET.
       "FAIR" INDICATES FEW OR NO CLOUDS BELOW 12,000 FEET WITH NO
       SIGNIFICANT WEATHER AND/OR OBSTRUCTIONS TO VISIBILITY.

  * THESE STATIONS DO NOT REPORT WEATHER SUCH AS RAIN...SNOW OR FOG.

NEZ001>004-019>022-054>056-262100-
NEBRASKA PANHANDLE

CITY           SKY/WX    TMP DP  RH WIND       PRES   REMARKS
SCOTTSBLUFF    LGT SNOW  22  17  81 CALM      30.01F
ALLIANCE       LGT SNOW  18  14  84 N14       30.00F FOG     WCI   4
CHADRON        CLOUDY    21  15  78 NE8       30.06F WCI  11
KIMBALL        LGT SNOW  17  12  80 N8        29.94S WCI   6
SIDNEY         LGT SNOW  19  14  81 N12       29.99S WCI   7
$$

NEZ057>060-069>072-079>082-262100-
SOUTHWEST NEBRASKA

CITY           SKY/WX    TMP DP  RH WIND       PRES   REMARKS
NORTH PLATTE   LGT SNOW  23  20  88 N9        30.01F VSB 1   WCI  13
IMPERIAL       SNOW      22  18  85 N15       29.99F VSB 1/2 WCI   9
LEXINGTON      CLOUDY    28  20  71 N14G21    30.00S WCI  17
MCCOOK         LGT SNOW  26  20  77 N16       29.98F WCI  14
OGALLALA       LGT SNOW  23  19  85 N13       30.01F WCI  11
$$

NEZ005>010-023>029-035>040-094-262100-
NORTH CENTRAL NEBRASKA

CITY           SKY/WX    TMP DP  RH WIND       PRES   REMARKS
VALENTINE      CLOUDY    22  17  81 N14       30.06R WCI   9
AINSWORTH      LGT SNOW  21  18  88 N20       30.04S WCI   6
BROKEN BOW     CLOUDY    25  19  78 N15G24    29.99F WCI  13
O`NEILL        LGT SNOW  24  23  95 N12G18    30.04F WCI  13
ORD            CLOUDY    26  18  71 N18       30.00F WCI  13
$$

NEZ041-046>049-061>064-073>077-083>087-262100-
SOUTH CENTRAL NEBRASKA

CITY           SKY/WX    TMP DP  RH WIND       PRES   REMARKS
GRAND ISLAND   CLOUDY    29  21  72 N16       30.00S WCI  17
AURORA         CLOUDY    29  24  82 N16       29.99R WCI  17
HASTINGS       CLOUDY    29  21  72 N16       29.98S WCI  17
HOLDREGE       CLOUDY    27  21  77 N16G23    29.97F WCI  15
KEARNEY *      CLOUDY    28  19  69 NW16      29.99R WCI  17
YORK           CLOUDY    28  27  93 N17G23    29.99R WCI  16
$$

NEZ011>018-030>034-042>045-262100-
NORTHEAST NEBRASKA

CITY           SKY/WX    TMP DP  RH WIND       PRES   REMARKS
NORFOLK        CLOUDY    28  24  85 N16       29.98F WCI  16
ALBION         CLOUDY    28  21  78 N15G22    29.99F WCI  16
BLAIR          CLOUDY    32  29  88 N14       29.95S WCI  22
COLUMBUS *     CLOUDY    28  21  74 N15       29.99F WCI  17
FREMONT        CLOUDY    32  29  86 N12G17    29.98R FOG     WCI  23
TEKAMAH        CLOUDY    33  29  85 N15       29.98F WCI  23
WAYNE          CLOUDY    30  26  84 N15       30.00F WCI  19
$$

NEZ050>053-065>068-078-088>093-262100-
SOUTHEAST NEBRASKA

CITY           SKY/WX    TMP DP  RH WIND       PRES   REMARKS
LINCOLN        CLOUDY    32  28  85 N14       29.98F WCI  22
OMAHA EPPLEY   CLOUDY    34  30  85 N12       29.97R WCI  25
BEATRICE       CLOUDY    32  29  90 N9        29.96S WCI  24
FALLS CITY     CLOUDY    36  31  82 N7        29.95R WCI  30
NEBRASKA CITY  CLOUDY    34  33  96 N9        29.96R FOG     WCI  26
PLATTSMOUTH    CLOUDY    33  30  88 N9        29.94S WCI  25
$$

NEZ044-045-051>053-067-262100-
OMAHA AREA

CITY           SKY/WX    TMP DP  RH WIND       PRES   REMARKS
OMAHA EPPLEY   CLOUDY    34  30  85 N12       29.97R WCI  25
BLAIR          CLOUDY    32  29  88 N14       29.95S WCI  22
FREMONT        CLOUDY    32  29  86 N12G17    29.98R FOG     WCI  23
MILLARD        CLOUDY    33  29  86 N6        29.97R WCI  28
OFFUTT AFB     CLOUDY    34  30  86 N10       29.95S WCI  26
PLATTSMOUTH    CLOUDY    33  30  88 N9        29.94S WCI  25
WAHOO          CLOUDY    32  28  84 N13       29.97R FOG     WCI  22
$$


USA.gov is the U.S. government's official web portal to all federal, state and local government web resources and services.